�N����,����,�~����,�C��,���x,�C��,����,���ϕ���,�ő�u�ԕ���,�ő厞����,���˗�,�I�_���x,�n�����x,�ő啗���N��,DTYPE
"21/04/22","00:10",0.0,10.1,49.0,1017.5,308.6,1.6,2.5,315.9,0.00,-0.1,130.0,"00:08:22",1
"21/04/22","00:20",0.0,10.3,49.4,1017.8,324.0,1.5,2.1,338.4,0.00,0.2,130.0,"00:10:24",1
"21/04/22","00:30",0.0,9.8,52.6,1018.0,302.3,1.7,2.2,317.8,0.00,0.6,130.0,"00:23:12",1
"21/04/22","00:40",0.0,9.7,52.1,1017.8,326.3,1.7,2.6,335.8,0.00,0.4,130.0,"00:37:20",1
"21/04/22","00:50",0.0,10.6,47.1,1017.8,330.8,2.3,3.5,328.7,0.00,-0.2,130.0,"00:42:24",1
"21/04/22","01:00",0.0,11.3,43.5,1017.8,340.2,2.1,3.5,339.6,0.00,-0.6,130.0,"00:53:50",1
"21/04/22","01:10",0.0,11.6,42.3,1018.0,342.1,2.0,3.3,344.0,0.00,-0.7,130.0,"01:09:42",1
"21/04/22","01:20",0.0,11.1,44.9,1017.8,339.9,2.5,3.4,346.0,0.00,-0.4,130.0,"01:19:02",1
"21/04/22","01:30",0.0,10.6,46.3,1018.0,331.8,2.8,4.1,338.1,0.00,-0.4,130.0,"01:26:28",1
"21/04/22","01:40",0.0,10.5,46.8,1017.8,330.6,2.3,3.5,342.6,0.00,-0.3,130.0,"01:35:08",1
"21/04/22","01:50",0.0,10.6,45.4,1017.8,340.7,2.2,3.2,348.5,0.00,-0.7,130.0,"01:43:46",1
"21/04/22","02:00",0.0,10.9,43.9,1017.5,348.8,1.6,2.5,332.1,0.00,-0.9,130.0,"01:51:54",1
"21/04/22","02:10",0.0,11.1,42.6,1017.3,349.9,1.3,2.2,355.9,0.00,-1.1,130.0,"02:09:32",1
"21/04/22","02:20",0.0,11.4,41.0,1017.3,346.4,1.7,2.6,357.3,0.00,-1.3,130.0,"02:11:16",1
"21/04/22","02:30",0.0,11.1,42.7,1017.3,340.4,2.0,2.9,338.0,0.00,-1.1,130.0,"02:21:58",1
"21/04/22","02:40",0.0,10.5,46.4,1017.3,333.1,3.0,3.9,324.5,0.00,-0.5,130.0,"02:37:52",1
"21/04/22","02:50",0.0,10.4,46.9,1017.3,330.2,3.5,4.5,334.8,0.00,-0.4,130.0,"02:48:00",1
"21/04/22","03:00",0.0,10.7,45.8,1017.3,332.3,4.4,5.7,317.2,0.00,-0.5,130.0,"02:58:26",1
"21/04/22","03:10",0.0,11.2,42.3,1017.1,327.0,3.9,5.9,310.4,0.00,-1.1,130.0,"03:09:34",1
"21/04/22","03:20",0.0,11.5,41.3,1017.3,328.1,5.1,7.1,336.3,0.00,-1.1,130.0,"03:15:34",1
"21/04/22","03:30",0.0,11.0,43.7,1017.1,331.4,4.2,7.3,322.4,0.00,-0.8,130.0,"03:25:16",1
"21/04/22","03:40",0.0,11.0,43.8,1017.1,324.2,4.2,5.5,321.1,0.00,-0.8,130.0,"03:30:08",1
"21/04/22","03:50",0.0,10.7,45.1,1017.3,340.6,2.2,4.5,335.7,0.00,-0.7,130.0,"03:41:34",1
"21/04/22","04:00",0.0,10.3,47.0,1017.1,351.3,2.2,4.0,335.2,0.00,-0.5,130.0,"03:59:44",1
"21/04/22","04:10",0.0,10.3,46.8,1017.1,330.9,3.5,6.3,340.8,0.00,-0.5,130.0,"04:09:28",1
"21/04/22","04:20",0.0,10.6,45.9,1017.1,332.3,3.6,7.0,339.4,0.00,-0.5,130.0,"04:10:58",1
"21/04/22","04:30",0.0,10.0,48.6,1017.3,332.0,2.8,4.2,342.4,0.00,-0.3,130.0,"04:20:48",1
"21/04/22","04:40",0.0,10.2,48.1,1017.5,334.6,2.8,4.3,326.1,0.00,-0.2,130.0,"04:36:52",1
"21/04/22","04:50",0.0,10.2,48.2,1017.1,333.3,3.2,5.9,346.5,0.00,-0.2,130.0,"04:48:18",1
"21/04/22","05:00",0.0,9.5,51.6,1017.1,335.3,3.4,5.5,332.8,0.00,0.1,130.0,"04:50:08",1
"21/04/22","05:10",0.0,9.3,53.4,1017.5,337.9,3.7,6.7,334.5,0.00,0.4,130.0,"05:03:36",1
"21/04/22","05:20",0.0,9.4,52.6,1017.8,341.9,3.1,5.9,356.6,0.00,0.2,130.0,"05:13:28",1
"21/04/22","05:30",0.0,9.4,52.0,1017.5,349.4,1.5,6.0,350.1,0.00,0.1,130.0,"05:22:48",1
"21/04/22","05:40",0.0,9.2,53.8,1017.8,339.1,2.7,4.0,336.0,0.00,0.4,130.0,"05:34:56",1
"21/04/22","05:50",0.0,9.1,54.9,1017.5,327.7,3.1,4.7,331.9,0.00,0.6,130.0,"05:48:08",1
"21/04/22","06:00",0.0,9.3,54.2,1017.8,325.6,3.0,4.3,345.3,0.00,0.6,130.0,"05:57:04",1
"21/04/22","06:10",0.0,9.5,53.9,1017.8,329.0,3.1,5.2,342.1,0.00,0.7,130.0,"06:03:44",1
"21/04/22","06:20",0.0,9.4,54.5,1017.5,347.8,2.2,3.5,336.3,0.01,0.7,130.0,"06:10:56",1
"21/04/22","06:30",0.0,9.7,55.1,1017.5,333.5,2.7,4.0,330.8,0.03,1.2,130.0,"06:22:32",1
"21/04/22","06:40",0.0,10.1,55.4,1017.5,330.2,3.0,4.7,334.6,0.03,1.6,130.0,"06:33:44",1
"21/04/22","06:50",0.0,10.4,54.3,1017.8,323.5,2.1,2.9,344.0,0.04,1.6,130.0,"06:40:40",1
"21/04/22","07:00",0.0,10.7,55.6,1017.5,289.3,1.5,2.2,315.1,0.05,2.2,130.0,"06:50:08",1
"21/04/22","07:10",0.0,11.2,53.3,1017.5,294.4,1.3,2.5,333.2,0.07,2.1,130.0,"07:08:48",1
"21/04/22","07:20",0.0,11.8,52.1,1017.8,333.9,1.6,2.7,331.0,0.09,2.3,130.0,"07:16:00",1
"21/04/22","07:30",0.0,11.9,55.4,1017.3,352.1,1.0,2.0,351.3,0.08,3.3,130.0,"07:21:44",1
"21/04/22","07:40",0.0,12.0,52.4,1017.5,297.5,1.3,2.9,324.6,0.07,2.6,130.0,"07:38:48",1
"21/04/22","07:50",0.0,12.3,51.4,1017.5,294.5,2.5,3.6,330.3,0.11,2.6,130.0,"07:40:56",1
"21/04/22","08:00",0.0,13.3,47.6,1017.5,324.1,3.2,5.2,330.6,0.21,2.5,130.0,"07:57:36",1
"21/04/22","08:10",0.0,14.6,44.9,1017.5,329.4,3.4,5.4,336.6,0.26,2.8,130.0,"08:05:44",1
"21/04/22","08:20",0.0,16.1,43.9,1017.5,322.0,2.0,4.1,329.1,0.30,3.9,130.0,"08:12:08",1
"21/04/22","08:30",0.0,17.4,38.1,1018.0,291.8,0.8,3.1,324.8,0.31,3.0,130.0,"08:25:52",1
"21/04/22","08:40",0.0,17.5,36.5,1018.0,12.6,1.1,2.1,280.1,0.34,2.5,130.0,"08:33:12",1
"21/04/22","08:50",0.0,17.6,37.7,1017.3,145.6,1.0,2.4,101.7,0.35,3.1,130.0,"08:43:36",1
"21/04/22","09:00",0.0,18.3,36.5,1017.3,317.6,1.0,2.5,358.8,0.36,3.2,130.0,"08:59:36",1
"21/04/22","09:10",0.0,19.1,36.3,1017.1,324.0,0.8,2.1,334.2,0.40,3.9,130.0,"09:05:44",1
"21/04/22","09:20",0.0,19.1,34.7,1016.8,299.4,1.1,2.4,345.9,0.41,3.2,130.0,"09:17:52",1
"21/04/22","09:30",0.0,19.6,33.4,1016.8,326.7,1.0,2.6,227.9,0.41,3.1,130.0,"09:29:12",1
"21/04/22","09:40",0.0,19.2,35.4,1017.1,206.5,1.2,2.5,233.5,0.37,3.6,130.0,"09:32:00",1
"21/04/22","09:50",0.0,20.4,34.9,1016.6,225.3,0.3,1.6,265.4,0.46,4.4,130.0,"09:45:04",1
"21/04/22","10:00",0.0,20.4,34.0,1016.6,165.6,1.0,2.1,206.7,0.40,4.1,130.0,"09:52:40",1
"21/04/22","10:10",0.0,20.5,33.6,1016.4,190.5,0.8,2.4,156.9,0.34,4.0,130.0,"10:02:40",1
"21/04/22","10:20",0.0,20.3,34.4,1016.8,309.9,1.5,3.1,304.9,0.35,4.1,130.0,"10:15:44",1
"21/04/22","10:30",0.0,20.1,34.4,1016.1,316.8,1.7,3.3,337.3,0.34,4.0,130.0,"10:22:32",1
"21/04/22","10:40",0.0,19.7,36.4,1016.4,329.7,2.3,4.7,346.8,0.31,4.4,130.0,"10:36:56",1
"21/04/22","10:50",0.0,20.5,36.5,1016.1,296.9,1.3,3.5,337.7,0.35,5.2,130.0,"10:42:24",1
"21/04/22","11:00",0.0,20.6,35.0,1015.9,343.4,1.3,3.1,341.8,0.26,4.7,130.0,"10:57:28",1
"21/04/22","11:10",0.0,21.1,34.8,1015.9,0.7,1.6,3.4,352.5,0.42,5.0,130.0,"11:01:04",1
"21/04/22","11:20",0.0,21.8,33.6,1015.6,335.9,1.2,2.6,19.7,0.49,5.1,130.0,"11:19:20",1
"21/04/22","11:30",0.0,23.0,32.4,1015.6,102.8,0.8,1.9,100.3,0.58,5.7,130.0,"11:27:44",1
"21/04/22","11:40",0.0,22.7,32.5,1015.2,113.0,1.0,2.7,125.5,0.38,5.4,130.0,"11:31:04",1
"21/04/22","11:50",0.0,22.7,29.4,1014.7,112.0,1.1,2.5,117.9,0.42,4.0,130.0,"11:42:56",1
"21/04/22","12:00",0.0,23.6,30.9,1014.5,27.2,0.5,1.7,76.3,0.35,5.5,130.0,"11:58:08",1
"21/04/22","12:10",0.0,22.9,30.0,1014.7,112.2,1.1,2.5,126.7,0.26,4.5,130.0,"12:02:40",1
"21/04/22","12:20",0.0,23.9,31.0,1014.2,59.6,0.8,2.0,328.5,0.44,5.8,130.0,"12:17:04",1
"21/04/22","12:30",0.0,24.6,29.5,1013.8,157.4,1.2,2.9,116.4,0.53,5.7,130.0,"12:23:28",1
"21/04/22","12:40",0.0,26.1,30.4,1013.5,177.7,1.0,2.0,182.7,0.66,7.4,130.0,"12:34:08",1
"21/04/22","12:50",0.0,25.1,22.0,1013.8,336.6,1.7,4.7,350.2,0.36,1.9,130.0,"12:46:48",1
"21/04/22","13:00",0.0,25.3,21.7,1013.0,4.0,2.8,5.0,7.3,0.39,1.9,130.0,"12:50:48",1
"21/04/22","13:10",0.0,24.8,20.7,1013.8,354.3,3.0,5.6,325.6,0.34,0.9,130.0,"13:04:40",1
"21/04/22","13:20",0.0,25.4,22.8,1013.3,0.5,3.0,6.6,346.5,0.48,2.7,130.0,"13:12:16",1
"21/04/22","13:30",0.0,24.9,20.5,1013.3,351.0,2.2,4.0,350.8,0.22,0.8,130.0,"13:20:08",1
"21/04/22","13:40",0.0,24.7,22.6,1013.3,350.4,2.7,5.1,336.1,0.29,2.0,130.0,"13:32:40",1
"21/04/22","13:50",0.0,24.8,22.5,1013.3,347.3,2.6,5.9,345.3,0.35,2.0,130.0,"13:46:56",1
"21/04/22","14:00",0.0,24.2,22.0,1013.3,330.1,3.2,5.7,308.8,0.32,1.2,130.0,"13:55:52",1
"21/04/22","14:10",0.0,25.1,22.0,1013.0,333.2,2.7,4.7,333.2,0.49,1.9,130.0,"14:02:24",1
"21/04/22","14:20",0.0,25.8,21.4,1012.6,322.4,2.3,4.5,322.3,0.58,2.1,130.0,"14:16:32",1
"21/04/22","14:30",0.0,25.8,21.1,1012.1,326.7,2.0,5.4,323.7,0.34,1.9,130.0,"14:23:36",1
"21/04/22","14:40",0.0,25.4,20.7,1012.1,351.9,1.8,3.6,344.0,0.24,1.3,130.0,"14:30:56",1
"21/04/22","14:50",0.0,26.0,21.1,1012.1,327.4,2.6,4.3,337.5,0.46,2.1,130.0,"14:49:20",1
"21/04/22","15:00",0.0,25.5,19.7,1012.1,347.7,3.6,7.3,348.3,0.48,0.7,130.0,"14:56:40",1
"21/04/22","15:10",0.0,25.6,20.0,1012.1,343.2,3.6,8.8,334.3,0.49,1.0,130.0,"15:00:56",1
"21/04/22","15:20",0.0,25.9,17.2,1012.1,347.4,2.5,6.3,336.3,0.44,-0.8,130.0,"15:14:32",1
"21/04/22","15:30",0.0,25.7,16.3,1012.1,357.3,3.0,7.0,2.2,0.41,-1.7,130.0,"15:28:00",1
"21/04/22","15:40",0.0,25.7,17.9,1012.1,351.4,2.6,5.4,330.1,0.39,-0.4,130.0,"15:34:56",1
"21/04/22","15:50",0.0,25.3,19.6,1011.9,349.6,3.5,7.3,348.4,0.36,0.5,130.0,"15:48:32",1
"21/04/22","16:00",0.0,25.0,18.7,1011.9,343.5,3.2,5.9,337.2,0.34,-0.4,130.0,"15:53:04",1
"21/04/22","16:10",0.0,24.9,18.6,1011.9,343.2,3.2,6.0,337.0,0.31,-0.5,130.0,"16:07:28",1
"21/04/22","16:20",0.0,25.2,17.9,1011.9,348.4,2.6,4.5,344.8,0.29,-0.8,130.0,"16:18:32",1
"21/04/22","16:30",0.0,25.1,17.8,1011.6,349.0,2.7,6.7,341.0,0.26,-1.0,130.0,"16:27:44",1
"21/04/22","16:40",0.0,25.0,18.9,1011.6,339.3,2.6,5.6,340.6,0.23,-0.2,130.0,"16:30:02",1
"21/04/22","16:50",0.0,24.5,19.4,1011.9,328.1,3.7,6.7,336.6,0.20,-0.3,130.0,"16:44:48",1
"21/04/22","17:00",0.0,24.3,18.3,1011.9,334.8,3.2,6.2,323.7,0.17,-1.3,130.0,"16:55:52",1
"21/04/22","17:10",0.0,24.0,18.5,1011.9,338.0,3.4,6.4,334.9,0.15,-1.3,130.0,"17:03:44",1
"21/04/22","17:20",0.0,23.6,18.9,1011.6,339.9,3.6,5.8,347.7,0.12,-1.4,130.0,"17:17:04",1
"21/04/22","17:30",0.0,23.1,19.6,1011.9,331.4,3.7,6.7,335.5,0.09,-1.3,130.0,"17:29:04",1
"21/04/22","17:40",0.0,22.9,20.7,1012.1,329.9,3.4,8.5,317.9,0.07,-0.7,130.0,"17:33:36",1
"21/04/22","17:50",0.0,22.4,21.8,1012.8,338.6,3.2,5.2,347.6,0.05,-0.4,130.0,"17:43:12",1
"21/04/22","18:00",0.0,21.8,22.2,1012.6,354.5,2.5,5.4,350.0,0.03,-0.7,130.0,"17:56:48",1
"21/04/22","18:10",0.0,21.3,23.5,1012.8,318.6,1.3,3.2,331.1,0.00,-0.3,130.0,"18:05:04",1
"21/04/22","18:20",0.0,20.4,24.9,1012.6,316.9,1.2,3.5,338.0,0.00,-0.3,130.0,"18:11:52",1
"21/04/22","18:30",0.0,19.9,26.4,1012.8,347.3,1.3,4.8,342.9,0.00,0.1,130.0,"18:26:48",1
"21/04/22","18:40",0.0,19.3,26.0,1013.3,317.3,1.2,3.2,316.3,0.00,-0.6,130.0,"18:36:16",1
"21/04/22","18:50",0.0,18.9,26.9,1013.0,327.8,2.2,5.2,331.6,0.00,-0.5,130.0,"18:49:12",1
"21/04/22","19:00",0.0,18.7,26.9,1013.5,322.6,2.0,4.5,215.2,0.00,-0.7,130.0,"18:56:00",1
"21/04/22","19:10",0.0,18.3,28.2,1013.5,334.5,1.7,5.0,313.2,0.00,-0.4,130.0,"19:08:56",1
"21/04/22","19:20",0.0,17.8,29.8,1013.8,334.7,2.5,6.2,344.7,0.00,0.0,130.0,"19:10:02",1
"21/04/22","19:30",0.0,17.5,30.0,1013.8,345.8,2.3,5.6,353.3,0.00,-0.2,130.0,"19:22:00",1
"21/04/22","19:40",0.0,17.5,30.5,1014.0,342.6,2.6,5.1,341.7,0.00,0.0,130.0,"19:34:48",1
"21/04/22","19:50",0.0,17.4,30.2,1014.5,1.3,1.5,4.7,344.9,0.00,-0.2,130.0,"19:46:48",1
"21/04/22","20:00",0.0,17.1,31.2,1014.0,57.7,1.1,3.1,113.8,0.00,0.0,130.0,"19:57:12",1
"21/04/22","20:10",0.0,16.8,32.5,1014.2,87.9,1.5,4.1,110.7,0.00,0.3,130.0,"20:09:44",1
"21/04/22","20:20",0.0,16.6,32.8,1014.2,57.8,1.1,2.4,101.2,0.00,0.2,130.0,"20:14:08",1
"21/04/22","20:30",0.0,16.5,34.0,1014.2,7.9,2.0,3.7,7.8,0.00,0.6,130.0,"20:24:24",1
"21/04/22","20:40",0.0,16.4,35.3,1014.7,3.7,2.0,5.2,44.9,0.00,1.1,130.0,"20:30:32",1
"21/04/22","20:50",0.0,16.2,36.5,1014.7,14.7,1.6,4.5,56.1,0.00,1.4,130.0,"20:44:00",1
"21/04/22","21:00",0.0,15.3,38.1,1014.9,328.0,1.3,3.1,331.2,0.00,1.2,130.0,"20:50:08",1
"21/04/22","21:10",0.0,14.3,44.1,1014.7,325.5,1.3,3.3,322.4,0.00,2.3,130.0,"21:06:00",1
"21/04/22","21:20",0.0,13.3,48.1,1014.9,330.7,2.6,3.9,334.8,0.00,2.6,130.0,"21:13:16",1
"21/04/22","21:30",0.0,14.1,43.8,1014.9,324.1,4.2,5.6,325.0,0.00,2.0,130.0,"21:26:36",1
"21/04/22","21:40",0.0,14.3,43.1,1015.2,332.9,4.1,6.4,327.2,0.00,2.0,130.0,"21:36:42",1
"21/04/22","21:50",0.0,14.8,42.0,1014.9,331.5,4.4,6.0,327.2,0.00,2.1,130.0,"21:46:00",1
"21/04/22","22:00",0.0,15.0,41.7,1014.7,333.1,4.5,7.1,322.4,0.00,2.1,130.0,"21:55:30",1
"21/04/22","22:10",0.0,14.8,42.1,1014.7,332.1,4.4,8.0,329.9,0.00,2.1,130.0,"22:00:56",1
"21/04/22","22:20",0.0,14.7,43.4,1014.9,335.8,5.0,10.0,340.2,0.00,2.4,130.0,"22:17:20",1
"21/04/22","22:30",0.0,14.6,44.5,1014.9,331.7,5.1,7.7,328.9,0.00,2.7,130.0,"22:21:32",1
"21/04/22","22:40",0.0,14.3,46.3,1015.2,332.2,4.4,7.5,337.8,0.00,3.0,130.0,"22:32:00",1
"21/04/22","22:50",0.0,14.0,47.5,1015.6,332.3,3.7,5.9,338.4,0.00,3.1,130.0,"22:48:08",1
"21/04/22","23:00",0.0,13.9,48.5,1015.4,330.4,3.6,6.5,315.3,0.00,3.3,130.0,"22:57:36",1
"21/04/22","23:10",0.0,13.7,50.0,1014.9,336.6,3.7,6.0,330.5,0.00,3.5,130.0,"23:00:26",1
"21/04/22","23:20",0.0,13.7,50.5,1015.4,329.5,3.2,5.8,340.4,0.00,3.7,130.0,"23:17:42",1
"21/04/22","23:30",0.0,13.8,51.3,1015.2,338.6,3.6,7.1,342.2,0.00,4.0,130.0,"23:23:20",1
"21/04/22","23:40",0.0,13.7,51.7,1014.9,337.9,4.2,6.7,335.8,0.00,4.0,130.0,"23:33:32",1
"21/04/22","23:50",0.0,13.6,51.7,1014.9,333.1,4.4,6.5,326.2,0.00,3.9,130.0,"23:46:38",1
"21/04/22","24:00",0.0,13.4,52.6,1014.7,329.0,3.7,6.7,333.1,0.00,4.0,130.0,"23:57:46",1
